Regional Weather Roundup
Issued by NWS Mt. Holly, NJ

Home | Current Version | Previous Version | Text Only | Print | Product List | Glossary On
Versions: 1 2 3 4 5 6 7 8 9 10 11 12 13 14 15 16 17 18 19 20 21 22 23 24 25 26 27 28 29 30 31 32 33 34 35 36 37 38 39 40 41 42 43 44 45 46 47 48 49 50
000
ASUS41 KPHI 022210
RWRPHI

REGIONAL WEATHER ROUNDUP
NATIONAL WEATHER SERVICE MOUNT HOLLY NJ
600 PM EDT TUE SEP 02 2014

NOTE:  "FAIR" INDICATES FEW OR NO CLOUDS BELOW 12,000 FEET WITH NO
SIGNIFICANT WEATHER AND/OR OBSTRUCTIONS TO VISIBILITY.

 * = STATION DOES NOT REPORT PRECIPITATION (E.G. RAIN, SNOW, ETC.)
        OR FOG.

NJZ015>026-022300-
SOUTHERN NEW JERSEY

CITY           SKY/WX    TMP DP  RH WIND       PRES   REMARKS
POMONA         MOSUNNY   89  70  53 SW7       29.86F HX  94
RIO GRANDE*    MOSUNNY   88  72  58 S8        29.88F HX  94
MILLVILLE      SUNNY     89  69  51 SW3       29.86F HX  93
WRIGHTSTOWN    SUNNY     88  73  60 SW12      29.82F HX  95
MOUNT HOLLY    SUNNY     88  71  57 SW6       29.84F HX  94
TRENTON        MOSUNNY   88  67  49 SW8       29.83S HX  91

$$
NJZ001>014-022300-
NORTHERN NEW JERSEY

CITY           SKY/WX    TMP DP  RH WIND       PRES   REMARKS
SUSSEX         SUNNY     88  67  49 SW8G17    29.81F HX  91
ANDOVER*         N/A     86  68  54 SW8       29.83F
MORRISTOWN     MOSUNNY   90  66  45 W13G18    29.81F HX  92
NEWARK         MOSUNNY   92  66  42 SW10      29.80F HX  94
TETERBORO      SUNNY     91  64  40 SW13      29.78F HX  92
CALDWELL       SUNNY     89  65  44 W8        29.81F HX  91
SOMERVILLE     SUNNY     90  66  45 VRB6      29.80F HX  92
ALLAIRE*       SUNNY     88  72  58 SW7       29.84F HX  94
TOMS RIVER*    SUNNY     90  70  51 SW9       29.85S HX  95

$$
PAZ043-044-047-054-055-060>062-066>071-022300-
EASTERN PENNSYLVANIA

CITY           SKY/WX    TMP DP  RH WIND       PRES   REMARKS
PHILADELPHIA   MOSUNNY   91  70  49 SW13      29.85F HX  96
NORTH PHILA    PTSUNNY   91  67  44 SW10      29.85F HX  94
BLUE BELL      SUNNY     88  72  58 SW9       29.84F HX  94
DOYLESTOWN     MOSUNNY   88  67  49 SW9       29.84F HX  91
QUAKERTOWN*    SUNNY     86  70  58 MISG      29.86F HX  90
POTTSTOWN      SUNNY     87  69  54 SW7       29.86F HX  91
LANCASTER      MOSUNNY   77  71  82 W7        29.86R
COATESVILLE      N/A     82  72  69 SW3       29.89R
READING        MOSUNNY   86  68  54 S9        29.83F
ALLENTOWN      MOSUNNY   88  66  48 SW9G18    29.83F HX  90
MOUNT POCONO   MOSUNNY   81  62  52 SW9       29.90F
HAZLETON       SUNNY     81  66  61 S3        29.91F
WILKES BARRE   MOSUNNY   86  63  45 SW9       29.82F

$$
DEZALL-MDZ008-012-015-019-020-022300-
DELAWARE AND EASTERN MARYLAND

CITY           SKY/WX    TMP DP  RH WIND       PRES   REMARKS
WILMINGTON     SUNNY     89  69  51 SW13      29.86F HX  93
DOVER          SUNNY     91  71  51 S10       29.86F HX  97
GEORGETOWN     SUNNY     92  68  45 S10       29.88F HX  96
EASTON         MOSUNNY   93  70  46 W9        29.90F HX  99
PATUXENT       MOSUNNY   88  75  65 SE7       29.86F HX  97
OCEAN CITY     SUNNY     87  77  72 VRB5      29.88F HX  99
WALLOPS ISLAND SUNNY     88  75  65 SW15      29.90F HX  97
CAMBRIDGE      SUNNY     91  72  52 S8        29.87F HX  98
SALISBURY      SUNNY     93  71  48 S9        29.88F HX 100

$$
PAZ001-021-NYZ056-072-MDZ011-DCZ001-022300-
OTHER NEARBY LOCATIONS

CITY           SKY/WX    TMP DP  RH WIND       PRES   REMARKS
HARRISBURG     PTSUNNY   79  73  82 SW7       29.84S THUNDER
STATE COLLEGE  PTSUNNY   73  72  94 W9        29.83F
WILLIAMSPORT   PTSUNNY   85  67  54 S12       29.77F
BINGHAMTON     CLOUDY    79  66  64 SW9       29.83F
NEW YORK CITY  MOSUNNY   88  64  44 VRB5      29.83F
BALTIMORE      PTSUNNY   76  70  82 W3        29.86R THUNDER
WASHINGTON DC  PTSUNNY   91  72  53 S8        29.87S HX  98

$$


USA.gov is the U.S. government's official web portal to all federal, state and local government web resources and services.